[[{"header":{"parameterUnit":"m.s-1","parameterCategory":1,"la1":30.2991,"la2":30.254,"lo1":-89.0895,"lo2":-89.0444,"dy":0.0017,"dx":0.0017,"nx":28,"ny":28,"refTime":"2025-05-21T09:00:00:Z","depth":0,"parameterNumber":2,"parameterNumberName":"U-component_of_WINDS"},"data":[0,0,0,0,0,0,0,0,0,0,0,0,0,0,0,0,0,0,0,0,0,0,0,0,0,0,0,0,0,0,0,0,0,0,0,0,0,0,0,0,0,0,0,0,0,0,0,0,0,0,0,0,0,0,0,0,0,0,2.1905,2.1906,0,2.2091,2.2093,2.2095,2.2085,2.2083,2.208,2.2077,2.2278,2.2285,2.2293,0,0,0,0,0,0,0,0,0,0,0,0,0,2.155,2.1557,2.1904,2.1907,2.1909,2.2091,2.2093,2.2096,2.2086,2.2083,2.2079,2.2076,2.2275,2.2284,2.2294,0,0,0,0,0,0,0,0,0,0,0,0,0,2.1717,2.1559,2.1904,2.1926,2.1929,2.209,2.2093,2.2096,2.2087,2.2083,2.2078,2.2075,2.2272,2.2283,2.2295,2.2449,0,0,2.2331,2.2336,0,0,0,0,0,0,0,0,2.1708,2.173,2.192,2.1924,2.1929,2.206,2.2042,2.2215,2.2088,2.2027,2.2077,2.2073,2.2209,2.2226,2.227,2.2458,2.2467,2.2332,2.2339,2.2344,2.2348,0,0,0,0,0,0,0,2.1696,2.1722,2.1978,2.1923,2.1928,2.193,2.1949,2.2074,2.2139,2.2032,2.2032,2.2054,2.2211,2.2259,2.2275,2.247,2.2332,2.2342,2.2349,2.2354,2.2798,2.2803,0,0,0,0,0,0,2.1678,2.1713,2.1972,2.1984,2.1806,2.1939,2.1961,2.2023,2.2138,2.2151,2.2057,2.2052,2.2241,2.2261,2.2282,2.2473,2.2344,2.2355,2.2362,2.2794,2.2799,2.2804,0,0,0,0,0,0,2.1671,2.1702,2.1965,2.1848,2.1882,2.195,2.2019,2.2028,2.2076,2.2156,2.2169,2.2093,2.2238,2.2265,2.2408,2.2479,2.236,2.2371,2.2788,2.2795,2.2802,2.2853,0,0,0,0,0,0,2.1661,2.1699,2.1755,2.1849,2.1888,2.2085,2.2023,2.2035,2.2095,2.2091,2.2193,2.2207,2.2237,2.239,2.2419,2.2493,2.238,2.2782,2.2791,2.28,2.2845,2.2861,2.2875,0,0,0,0,0,2.1648,2.1764,2.1758,2.179,2.196,2.2089,2.2111,2.2141,2.2101,2.2161,2.2212,2.2203,2.2466,2.2405,2.2438,2.2516,2.2778,2.2789,2.2799,2.2839,2.2858,2.2874,0,0,0,0,0,0,2.1679,2.1776,2.1771,2.192,2.1996,2.2087,2.2162,2.216,2.2251,2.2244,2.228,2.2304,2.2447,2.2496,2.2426,2.2673,2.2617,2.2635,2.2636,2.2655,2.2669,2.2656,2.239,0,0,0,0,0,2.1702,2.1796,2.1877,2.2001,2.2039,2.2094,2.2151,2.2168,2.2249,2.2282,2.2344,2.2426,2.2528,2.2594,2.2691,2.2852,2.2877,2.2922,2.2937,2.2948,2.2964,2.3057,2.308,2.2839,2.2839,2.2839,0,0,2.1753,2.1818,2.1875,2.2009,2.2069,2.2169,2.2121,2.2228,2.2304,2.2299,2.2438,2.2486,2.2581,2.2734,2.2804,2.2779,2.3036,2.2962,2.2971,2.2981,2.307,2.3093,2.3113,2.2847,2.2845,2.2844,0,0,2.1896,2.1953,2.2064,2.2125,2.2217,2.2254,2.228,2.2372,2.2404,2.2542,2.2542,2.2634,2.2807,2.2875,2.2933,2.3105,2.3102,2.3136,2.3213,2.3303,2.3322,2.3339,2.3404,2.3426,2.315,2.3151,2.3151,0,2.1949,2.2096,2.2122,2.223,2.2291,2.2289,2.2404,2.2463,2.2584,2.2627,2.2596,2.2814,2.2878,2.3048,2.309,2.3136,2.3171,2.3125,2.3316,2.3334,2.335,2.3413,2.3437,2.3154,2.3154,2.3154,2.3153,0,2.2157,2.226,2.2339,2.2453,2.2522,2.2633,2.268,2.2748,2.2759,2.28,2.2944,2.3019,2.3134,2.3175,2.3187,2.3349,2.3331,2.3307,2.3252,2.3376,2.3436,2.346,2.316,2.3158,2.3157,2.3156,0,0,2.2326,2.2453,2.2482,2.2535,2.2637,2.2719,2.2832,2.2941,2.3,2.3084,2.3182,2.3329,2.3309,2.3374,2.3394,2.3473,2.3609,2.3441,2.3444,2.3472,2.3797,2.3816,2.3843,2.3607,2.3611,2.3615,2.379,0,2.2482,2.2679,2.2707,2.2882,2.298,2.298,2.3079,2.3155,2.3197,2.3288,2.3336,2.3441,2.3404,2.3444,2.3521,2.3576,2.3676,2.3563,2.3703,2.3708,2.3682,2.3874,2.3894,2.4055,2.3814,2.3817,2.382,0,2.2691,2.2779,2.2963,2.3054,2.3096,2.3184,2.3289,2.3374,2.3462,2.3487,2.3561,2.3572,2.3694,2.3631,2.3802,2.3725,2.3784,2.382,2.3827,2.3844,2.3773,2.3899,2.4107,2.4133,2.3857,2.3854,2.3851,0,2.28,2.2964,2.3096,2.3141,2.325,2.3313,2.3362,2.3444,2.3509,2.3602,2.3645,2.3751,2.381,2.3894,2.3935,2.3885,2.4105,2.4045,2.4133,2.4133,2.4181,2.4178,2.4406,2.4214,2.4214,2.4213,2.4213,0,2.2973,2.3087,2.3147,2.3228,2.3357,2.339,2.3518,2.3566,2.364,2.3734,2.3742,2.3831,2.3878,2.3976,2.401,2.4148,2.4174,2.4201,2.421,2.4202,2.4199,2.4244,2.4235,2.422,2.4218,2.4217,2.4216,0,2.3117,2.3161,2.3306,2.3397,2.3423,2.3514,2.3594,2.3676,2.3717,2.3837,2.3867,2.3933,2.4048,2.4097,2.424,2.4262,2.4423,2.4421,2.4392,2.4396,2.4482,2.4475,2.4748,2.4788,2.4567,2.4569,2.4571,0,2.3226,2.3314,2.3414,2.3476,2.3527,2.3627,2.3693,2.373,2.3799,2.3906,2.3977,2.4091,2.4185,2.437,2.4434,2.4544,2.4547,2.4635,2.4564,2.4555,2.4553,2.4548,2.4559,2.4649,2.4651,2.4653,2.4655,0,2.3417,2.3435,2.3528,2.363,2.3708,2.3791,2.3872,2.3924,2.3973,2.4052,2.4168,2.4241,2.4386,2.4502,2.4616,2.4671,2.4674,2.4676,2.4703,2.4698,2.468,2.4695,2.4431,2.467,2.4669,2.4668,2.4667,2.4666,2.355,2.3629,2.3712,2.3817,2.3881,2.3957,2.4039,2.409,2.4187,2.4306,2.4323,2.4449,2.4538,2.4691,2.475,2.4852,2.4831,2.4869,2.4879,2.4889,2.4896,2.466,2.4873,2.4873,2.4872,2.4872,2.4872,0,2.3744,2.3797,2.3893,2.4005,2.4089,2.408,2.417,2.4242,2.4352,2.4433,2.4525,2.4661,2.4774,2.4846,2.4961,2.5029,2.5034,2.5059,2.5056,2.5069,2.4907,2.4874,2.5053,2.5053,2.5053,2.5053,2.5053,2.5053,2.3854,2.3989,2.4017,2.4185,2.4238,2.436,2.4413,2.4485,2.455,2.4701,2.4793,2.4838,2.4918,2.5039,2.5143,2.5162,2.5206,2.5233,2.5251,2.5099,2.508,2.5062,2.5031,2.5241,2.5241,2.5405,2.5407,2.5408]},{"header":{"parameterUnit":"m.s-1","parameterCategory":1,"la1":30.2991,"la2":30.254,"lo1":-89.0895,"lo2":-89.0444,"dy":0.0017,"dx":0.0017,"nx":28,"ny":28,"refTime":"2025-05-21T09:00:00:Z","depth":0,"parameterNumber":3,"parameterNumberName":"V-component_of_WINDS"},"data":[0,0,0,0,0,0,0,0,0,0,0,0,0,0,0,0,0,0,0,0,0,0,0,0,0,0,0,0,0,0,0,0,0,0,0,0,0,0,0,0,0,0,0,0,0,0,0,0,0,0,0,0,0,0,0,0,0,0,-1.7845,-1.7844,0,-1.7763,-1.7762,-1.7761,-1.7806,-1.7808,-1.7811,-1.7813,-1.7722,-1.7717,-1.7713,0,0,0,0,0,0,0,0,0,0,0,0,0,-1.8033,-1.803,-1.7845,-1.7844,-1.7843,-1.7763,-1.7762,-1.7761,-1.7806,-1.7809,-1.7811,-1.7814,-1.7723,-1.7718,-1.7712,0,0,0,0,0,0,0,0,0,0,0,0,0,-1.7951,-1.8028,-1.7845,-1.7856,-1.7856,-1.7764,-1.7762,-1.7761,-1.7805,-1.7809,-1.7812,-1.7815,-1.7725,-1.7718,-1.7712,-1.7602,0,0,-1.7691,-1.7688,0,0,0,0,0,0,0,0,-1.7956,-1.7944,-1.7855,-1.7855,-1.7855,-1.7799,-1.7795,-1.7707,-1.7804,-1.7824,-1.7813,-1.7817,-1.7744,-1.7736,-1.7713,-1.7598,-1.7594,-1.769,-1.7686,-1.7683,-1.7681,0,0,0,0,0,0,0,-1.7962,-1.7948,-1.7812,-1.7854,-1.7853,-1.7863,-1.7855,-1.7779,-1.7766,-1.7823,-1.7826,-1.7816,-1.7744,-1.7719,-1.7711,-1.7592,-1.769,-1.7684,-1.768,-1.7678,-1.7384,-1.7381,0,0,0,0,0,0,-1.7967,-1.7952,-1.7815,-1.781,-1.7915,-1.7856,-1.7848,-1.7813,-1.7767,-1.7763,-1.7813,-1.7818,-1.7729,-1.7719,-1.7708,-1.7577,-1.7683,-1.7677,-1.7673,-1.7388,-1.7383,-1.7379,0,0,0,0,0,0,-1.7971,-1.7955,-1.7818,-1.7882,-1.7865,-1.785,-1.781,-1.781,-1.7785,-1.776,-1.7757,-1.779,-1.7732,-1.7718,-1.7629,-1.7575,-1.7674,-1.7668,-1.7392,-1.7387,-1.7381,-1.7315,0,0,0,0,0,0,-1.7977,-1.7956,-1.7915,-1.7881,-1.7862,-1.7742,-1.7807,-1.7806,-1.7774,-1.778,-1.7737,-1.7734,-1.7733,-1.7639,-1.7622,-1.7567,-1.7662,-1.7397,-1.739,-1.7383,-1.7321,-1.7307,-1.7295,0,0,0,0,0,-1.7983,-1.7898,-1.7913,-1.7896,-1.7811,-1.7739,-1.7727,-1.7731,-1.7769,-1.7727,-1.7712,-1.7735,-1.7584,-1.7629,-1.7611,-1.7553,-1.74,-1.7392,-1.7384,-1.7327,-1.731,-1.7296,0,0,0,0,0,0,-1.7923,-1.7893,-1.791,-1.7811,-1.7777,-1.7746,-1.7694,-1.7712,-1.7665,-1.7672,-1.7676,-1.7666,-1.7574,-1.7555,-1.7606,-1.7445,-1.7498,-1.7485,-1.7461,-1.7445,-1.7432,-1.7438,-1.7657,0,0,0,0,0,-1.7899,-1.7844,-1.7821,-1.7736,-1.7718,-1.7709,-1.7677,-1.7683,-1.7647,-1.7633,-1.761,-1.7573,-1.7517,-1.748,-1.7427,-1.7319,-1.7311,-1.7271,-1.7258,-1.7247,-1.7236,-1.7178,-1.716,-1.7352,-1.7352,-1.7352,0,0,-1.7846,-1.7824,-1.7789,-1.7723,-1.7698,-1.764,-1.7696,-1.7632,-1.7589,-1.7622,-1.7538,-1.752,-1.7478,-1.738,-1.7336,-1.7361,-1.7181,-1.7236,-1.7228,-1.7222,-1.7168,-1.715,-1.7133,-1.7346,-1.7347,-1.7348,0,0,-1.7723,-1.77,-1.7628,-1.7602,-1.7564,-1.7559,-1.7542,-1.7508,-1.7499,-1.7415,-1.7439,-1.7387,-1.729,-1.726,-1.7232,-1.71,-1.7119,-1.7082,-1.7013,-1.6957,-1.6942,-1.6928,-1.6881,-1.6864,-1.7071,-1.7071,-1.7071,0,-1.7662,-1.7579,-1.7587,-1.7523,-1.7493,-1.7524,-1.745,-1.7423,-1.7369,-1.7347,-1.7377,-1.7258,-1.7232,-1.7128,-1.7096,-1.7072,-1.7051,-1.7086,-1.6944,-1.693,-1.6918,-1.6873,-1.6855,-1.7067,-1.7067,-1.7068,-1.7068,0,-1.7506,-1.7448,-1.7393,-1.7344,-1.7308,-1.7238,-1.7236,-1.7198,-1.7207,-1.7199,-1.7113,-1.7083,-1.7026,-1.7001,-1.7008,-1.6898,-1.6915,-1.6944,-1.6997,-1.6895,-1.6853,-1.6836,-1.7061,-1.7062,-1.7063,-1.7064,0,0,-1.734,-1.7299,-1.7279,-1.7257,-1.7219,-1.7172,-1.7104,-1.7051,-1.7019,-1.698,-1.6923,-1.6842,-1.687,-1.6838,-1.6842,-1.6793,-1.669,-1.6828,-1.6827,-1.6803,-1.6567,-1.6545,-1.6525,-1.6704,-1.67,-1.6698,-1.657,0,-1.7214,-1.7098,-1.7105,-1.6995,-1.6941,-1.6971,-1.6912,-1.6881,-1.6871,-1.6822,-1.681,-1.6753,-1.6794,-1.6775,-1.6728,-1.6713,-1.6643,-1.6722,-1.6648,-1.6646,-1.6658,-1.6503,-1.6479,-1.636,-1.6554,-1.6551,-1.6549,0,-1.7051,-1.7011,-1.6897,-1.6868,-1.6846,-1.6793,-1.6745,-1.6699,-1.6664,-1.666,-1.6626,-1.6639,-1.6569,-1.6625,-1.6528,-1.6582,-1.6552,-1.654,-1.6536,-1.6528,-1.6591,-1.649,-1.6322,-1.6304,-1.6523,-1.6525,-1.6527,0,-1.6942,-1.6859,-1.678,-1.6761,-1.6725,-1.6687,-1.667,-1.664,-1.6608,-1.6565,-1.6544,-1.6493,-1.6465,-1.6425,-1.6423,-1.6464,-1.6325,-1.638,-1.6319,-1.6319,-1.6287,-1.6289,-1.6111,-1.6269,-1.6269,-1.6269,-1.627,0,-1.68,-1.6729,-1.6731,-1.6682,-1.6603,-1.6612,-1.6533,-1.652,-1.6492,-1.644,-1.6462,-1.6412,-1.6414,-1.6363,-1.6361,-1.6281,-1.6268,-1.6262,-1.6262,-1.626,-1.626,-1.624,-1.6248,-1.6265,-1.6266,-1.6267,-1.6267,0,-1.6664,-1.6663,-1.6579,-1.6554,-1.6546,-1.6488,-1.6466,-1.6419,-1.6413,-1.6347,-1.6332,-1.632,-1.6262,-1.6257,-1.6188,-1.6187,-1.609,-1.6099,-1.6103,-1.6104,-1.6043,-1.6048,-1.5844,-1.5818,-1.5994,-1.5992,-1.599,0,-1.6573,-1.652,-1.649,-1.6458,-1.644,-1.6388,-1.6357,-1.6363,-1.6329,-1.6287,-1.6245,-1.619,-1.6145,-1.605,-1.6035,-1.5982,-1.599,-1.5922,-1.5982,-1.5982,-1.5989,-1.5992,-1.5987,-1.591,-1.5908,-1.5907,-1.5905,0,-1.6412,-1.6415,-1.6371,-1.6326,-1.6288,-1.6252,-1.6219,-1.6191,-1.6194,-1.6154,-1.6096,-1.6062,-1.5994,-1.5938,-1.5888,-1.5868,-1.5886,-1.5887,-1.587,-1.5867,-1.5871,-1.5868,-1.607,-1.5891,-1.5893,-1.5894,-1.5895,-1.5895,-1.6296,-1.6251,-1.6223,-1.6173,-1.6149,-1.6118,-1.6074,-1.6063,-1.6016,-1.5963,-1.5969,-1.5905,-1.5872,-1.5807,-1.5784,-1.5732,-1.5755,-1.573,-1.5724,-1.5717,-1.5711,-1.588,-1.5723,-1.5723,-1.5724,-1.5724,-1.5724,0,-1.6137,-1.6121,-1.6075,-1.603,-1.599,-1.6014,-1.5979,-1.5943,-1.5888,-1.5857,-1.5815,-1.5748,-1.5695,-1.5676,-1.5624,-1.5586,-1.5593,-1.5572,-1.5574,-1.557,-1.5694,-1.5714,-1.5567,-1.5567,-1.5568,-1.5568,-1.5568,-1.5568,-1.6049,-1.5974,-1.5973,-1.5886,-1.5871,-1.581,-1.5788,-1.5759,-1.5735,-1.5662,-1.5619,-1.5608,-1.5582,-1.5528,-1.548,-1.5476,-1.5455,-1.543,-1.5429,-1.5545,-1.5561,-1.5576,-1.5595,-1.5426,-1.5425,-1.5309,-1.5308,-1.5307]}]]